Vorticity
10 11 10 11 27 6 3 7 2 -1 5 11 8 3 19 9 10 7 8 7 10 5 18 21 20 12 11 12 9 9 8 11 15 29 2 54 24 11 23 13 10 17 18 10
9 11 10 10 18 33 1 -2 19 1 -0 10 5 12 11 8 7 9 13 5 7 8 23 15 46 7 3 8 5 7 7 13 16 24 19 36 -31 -10 20 19 19 11 13 1
8 9 12 17 10 13 8 6 12 19 5 6 8 12 -7 25 7 12 5 5 9 7 19 11 4 6 19 49 9 7 4 12 14 12 13 -2 36 20 -24 9 -18 5 9 -2
14 13 14 19 17 12 15 14 15 19 5 1 8 7 5 -2 20 8 9 12 10 6 17 21 12 11 18 26 26 8 -3 4 14 14 -5 28 -5 19 26 12 -3 -9 -0 16
10 10 15 17 17 13 12 4 17 12 3 5 11 5 7 0 6 12 7 9 12 8 6 28 13 24 18 35 9 14 4 24 11 -11 30 -20 12 23 1 -6 12 16 22 -5
15 15 14 21 17 21 13 10 7 16 12 9 12 8 5 13 -4 23 6 7 8 8 8 16 12 2 12 20 20 24 14 17 13 19 30 27 -11 9 38 26 11 8 -1 1
14 14 10 9 14 18 11 6 2 5 9 13 5 15 2 -0 8 20 9 7 6 7 9 9 16 3 5 9 12 11 9 8 2 15 -6 17 7 3 7 4 22 -1 -2 6
11 16 21 15 8 15 15 12 7 5 9 11 7 9 7 4 9 19 14 10 4 7 3 9 9 17 12 8 18 12 7 10 16 12 12 15 -2 38 4 11 -4 -3 3 4
11 10 12 18 12 10 16 14 12 3 7 9 6 10 6 4 6 9 17 11 10 4 3 3 13 10 12 15 10 14 8 13 10 8 15 14 19 19 13 2 2 3 12 11
9 12 10 15 13 11 7 12 9 20 4 7 7 7 6 5 6 5 13 10 15 23 12 11 7 7 5 10 9 7 14 24 9 11 7 7 1 6 10 6 11 9 13 15
10 13 9 8 2 10 16 13 14 7 10 3 3 6 5 8 6 9 1 3 5 8 11 17 11 12 2 1 7 3 4 6 13 9 5 5 5 9 10 12 6 8 18 15
8 6 8 10 12 7 2 12 25 13 11 13 4 5 4 5 7 7 2 4 2 5 3 12 10 15 13 11 10 14 15 15 15 11 7 6 9 12 18 21 16 11 9 6
13 13 12 10 13 11 9 10 4 8 18 16 12 8 6 5 6 3 11 5 3 3 9 8 11 8 10 9 7 9 7 8 8 9 11 11 11 11 9 7 7 6 6 7
19 17 18 23 13 21 21 11 9 10 8 10 14 13 8 7 6 4 5 12 4 3 6 8 15 13 9 11 10 10 7 7 8 8 8 8 7 7 7 6 7 9 9 6
18 17 16 8 15 14 27 31 16 10 8 6 12 14 11 10 9 6 5 8 8 7 7 3 9 11 7 8 5 6 9 9 9 8 8 8 8 8 9 10 7 5 6 4
7 2 5 13 21 20 24 30 40 21 16 12 7 9 13 15 11 11 9 6 16 -1 11 7 4 9 12 8 12 13 10 8 8 9 8 7 7 8 5 5 6 6 6 5
13 19 13 18 6 12 8 11 23 39 29 19 15 9 9 12 15 10 11 8 11 8 -2 11 4 6 12 10 12 7 9 5 5 9 8 7 6 5 4 5 5 4 5 4
29 37 45 36 26 11 13 14 15 19 29 30 30 17 12 13 12 9 13 9 8 9 3 6 7 1 18 8 15 5 3 7 11 8 7 6 4 5 6 5 4 3 3 5
12 16 14 13 10 19 33 22 29 -8 8 21 24 25 19 18 13 13 15 11 8 12 5 2 7 10 11 7 4 5 6 7 7 6 5 4 3 6 5 4 6 9 11 10
1 9 7 20 44 21 56 16 19 30 18 16 10 16 22 20 20 17 12 13 9 2 7 12 -3 13 11 8 4 4 5 8 7 6 0 3 7 6 6 6 7 7 8 7
3 1 14 2 33 37 62 11 9 13 24 24 18 11 20 21 21 17 18 14 5 13 -3 13 10 -5 20 11 10 10 7 6 6 6 5 5 4 4 4 3 6 7 7 9
10 20 20 21 23 45 28 9 12 12 14 14 15 18 27 24 21 21 17 19 11 14 -6 9 4 15 9 20 12 10 10 8 7 7 4 9 11 7 3 2 7 9 11 9
6 37 20 45 26 23 15 20 7 15 12 1 8 28 25 32 21 23 23 24 11 8 21 -6 4 8 6 8 12 16 14 15 7 6 7 9 3 4 1 7 11 10 9 10
35 7 24 25 23 21 20 18 13 16 16 11 5 34 23 28 29 26 24 20 18 28 6 7 -13 0 3 12 8 10 12 16 17 7 8 4 3 3 11 12 10 9 11 12
28 12 7 19 19 15 13 16 22 -1 1 17 25 26 25 24 31 40 30 3 -12 21 24 20 18 7 11 17 16 15 17 19 12 10 2 2 9 12 10 9 11 8 6 8
15 15 18 27 20 24 13 23 -8 -6 -10 45 51 9 34 28 -6 -16 27 13 -1 11 25 2 2 7 7 14 14 13 13 10 4 1 5 12 11 10 9 7 8 8 7 6
9 10 11 15 26 27 20 27 33 31 27 25 -14 5 24 16 13 2 16 17 8 11 2 9 14 16 14 13 12 9 4 3 8 13 11 10 9 9 7 5 4 5 7 8
Height
5651 5648 5644 5643 5642 5640 5635 5636 5629 5635 5629 5627 5624 5621 5617 5613 5609 5605 5601 5596 5590 5585 5579 5574 5573 5573 5575 5576 5577 5576 5576 5577 5578 5584 5591 5596 5602 5604 5610 5617 5623 5630 5636 5645
5639 5640 5636 5635 5635 5631 5629 5629 5625 5626 5627 5622 5619 5616 5613 5609 5606 5603 5599 5595 5590 5584 5578 5574 5571 5571 5572 5574 5575 5577 5578 5579 5581 5585 5590 5595 5599 5607 5609 5615 5622 5627 5631 5638
5628 5629 5627 5629 5626 5623 5620 5619 5618 5618 5618 5617 5614 5612 5609 5605 5602 5600 5597 5593 5588 5583 5578 5574 5572 5570 5569 5570 5573 5576 5578 5579 5582 5584 5589 5594 5597 5604 5609 5614 5619 5625 5629 5631
5619 5617 5615 5619 5616 5614 5612 5609 5610 5610 5610 5610 5608 5606 5605 5602 5599 5597 5594 5591 5588 5583 5578 5575 5572 5570 5568 5567 5571 5574 5577 5580 5583 5587 5589 5591 5597 5602 5607 5613 5617 5620 5624 5628
5608 5605 5607 5609 5606 5605 5603 5601 5601 5602 5602 5603 5602 5601 5600 5598 5595 5594 5592 5590 5587 5584 5579 5576 5573 5571 5569 5568 5568 5572 5575 5581 5584 5587 5591 5594 5599 5603 5607 5610 5614 5618 5623 5626
5597 5594 5596 5596 5596 5595 5594 5593 5594 5594 5595 5596 5596 5596 5596 5593 5592 5590 5590 5589 5587 5584 5581 5577 5575 5574 5572 5571 5569 5572 5576 5581 5584 5587 5590 5593 5598 5601 5604 5608 5613 5616 5620 5623
5586 5583 5587 5586 5587 5585 5586 5588 5587 5587 5588 5589 5590 5591 5590 5589 5588 5586 5586 5586 5585 5584 5581 5579 5577 5576 5575 5574 5574 5574 5577 5580 5583 5586 5589 5592 5596 5600 5603 5607 5610 5614 5616 5618
5576 5575 5576 5577 5577 5577 5577 5577 5579 5580 5581 5582 5583 5584 5585 5584 5584 5583 5582 5583 5582 5582 5581 5579 5578 5576 5576 5576 5577 5578 5579 5581 5583 5585 5588 5590 5593 5596 5600 5605 5608 5610 5612 5613
5567 5568 5567 5568 5568 5567 5566 5568 5569 5570 5571 5573 5576 5577 5579 5579 5579 5579 5578 5578 5579 5579 5579 5579 5579 5578 5577 5577 5577 5579 5580 5581 5582 5584 5586 5588 5592 5595 5599 5602 5604 5605 5607 5607
5556 5562 5556 5558 5558 5556 5556 5557 5558 5561 5563 5564 5567 5569 5571 5573 5574 5575 5574 5575 5575 5575 5575 5576 5577 5577 5577 5577 5577 5578 5579 5580 5582 5584 5586 5588 5591 5593 5595 5598 5600 5601 5603 5604
5548 5548 5546 5547 5545 5544 5545 5547 5549 5553 5554 5554 5558 5561 5564 5566 5569 5570 5570 5570 5571 5572 5572 5572 5573 5574 5575 5576 5577 5578 5578 5579 5580 5581 5583 5585 5588 5591 5593 5595 5596 5598 5599 5600
5536 5533 5529 5533 5532 5533 5533 5536 5539 5541 5543 5546 5549 5552 5556 5560 5562 5564 5566 5566 5567 5567 5569 5570 5570 5570 5571 5572 5574 5575 5575 5576 5577 5579 5580 5583 5585 5587 5588 5590 5592 5593 5594 5595
5519 5517 5517 5516 5517 5520 5520 5522 5525 5528 5532 5537 5540 5543 5547 5550 5554 5557 5560 5561 5561 5563 5565 5566 5567 5567 5568 5569 5570 5571 5572 5574 5575 5576 5578 5579 5581 5583 5585 5586 5587 5588 5589 5589
5502 5500 5503 5499 5501 5503 5506 5508 5509 5513 5518 5522 5529 5530 5534 5539 5544 5548 5552 5555 5556 5558 5559 5561 5562 5563 5564 5565 5567 5568 5569 5570 5572 5573 5574 5576 5578 5579 5581 5582 5583 5584 5584 5584
5494 5490 5487 5488 5487 5488 5489 5492 5494 5497 5502 5506 5512 5517 5521 5527 5532 5537 5541 5546 5550 5552 5554 5556 5557 5558 5560 5561 5563 5564 5565 5566 5567 5569 5571 5573 5575 5576 5577 5578 5578 5578 5578 5577
5486 5482 5478 5476 5476 5474 5475 5477 5479 5483 5486 5491 5496 5502 5508 5514 5519 5525 5531 5535 5541 5546 5548 5549 5551 5553 5554 5556 5558 5559 5561 5562 5564 5565 5566 5568 5569 5570 5571 5572 5572 5572 5571 5570
5475 5473 5469 5467 5464 5464 5464 5464 5465 5468 5472 5476 5480 5486 5494 5501 5507 5513 5520 5525 5530 5536 5541 5543 5545 5547 5549 5551 5552 5554 5555 5556 5558 5559 5561 5562 5563 5564 5565 5565 5565 5564 5563 5562
5464 5459 5456 5454 5453 5451 5453 5454 5456 5457 5459 5463 5468 5474 5480 5487 5494 5501 5508 5514 5520 5526 5531 5536 5539 5541 5543 5545 5547 5549 5550 5551 5552 5554 5555 5556 5557 5558 5558 5557 5557 5556 5554 5552
5456 5452 5447 5444 5439 5437 5437 5440 5445 5449 5452 5453 5456 5461 5467 5473 5481 5489 5496 5504 5510 5517 5523 5527 5532 5535 5536 5539 5541 5543 5545 5546 5547 5548 5549 5550 5550 5550 5549 5549 5547 5546 5544 5542
5449 5445 5440 5434 5427 5425 5425 5428 5434 5439 5442 5446 5448 5451 5456 5462 5469 5478 5485 5493 5500 5507 5513 5519 5524 5528 5530 5531 5534 5536 5537 5538 5539 5541 5542 5542 5542 5541 5541 5540 5538 5536 5533 5531
5444 5439 5432 5426 5420 5415 5416 5423 5428 5432 5435 5438 5442 5444 5447 5452 5459 5467 5476 5482 5490 5497 5505 5510 5515 5520 5523 5524 5526 5528 5530 5531 5532 5533 5533 5533 5533 5533 5532 5530 5528 5526 5523 5520
5439 5432 5426 5420 5417 5413 5415 5419 5423 5428 5431 5434 5436 5438 5440 5443 5449 5457 5465 5474 5481 5488 5497 5502 5506 5511 5514 5516 5518 5520 5522 5523 5523 5523 5523 5524 5524 5523 5522 5520 5518 5515 5512 5508
5435 5428 5422 5416 5414 5414 5416 5419 5423 5426 5429 5431 5431 5431 5434 5437 5443 5449 5458 5466 5473 5480 5488 5494 5498 5501 5505 5508 5509 5511 5512 5513 5513 5514 5515 5515 5514 5513 5512 5510 5507 5504 5500 5497
5433 5428 5423 5419 5417 5417 5418 5421 5422 5425 5426 5426 5427 5426 5429 5433 5439 5445 5451 5459 5467 5474 5480 5486 5490 5493 5496 5498 5499 5501 5502 5503 5504 5505 5505 5505 5504 5502 5501 5498 5495 5492 5489 5485
5435 5431 5427 5424 5422 5422 5422 5422 5424 5425 5425 5425 5425 5426 5428 5434 5438 5443 5450 5458 5465 5470 5474 5479 5483 5485 5488 5489 5490 5491 5493 5494 5495 5496 5495 5495 5493 5491 5488 5486 5483 5480 5477 5473
5439 5435 5431 5428 5426 5425 5425 5425 5426 5426 5425 5426 5426 5429 5432 5436 5441 5446 5450 5455 5459 5464 5469 5473 5476 5478 5480 5481 5482 5482 5484 5485 5486 5486 5485 5483 5482 5479 5476 5474 5471 5467 5464 5459
5444 5440 5437 5435 5433 5431 5429 5429 5429 5428 5428 5430 5432 5434 5436 5440 5443 5446 5450 5454 5458 5461 5464 5467 5469 5471 5472 5474 5475 5476 5476 5476 5476 5474 5473 5471 5469 5466 5464 5460 5457 5453 5449 5444